Kosmos-2463

operational
NORAD ID: 36519 Int'l Des: 2010-017 Owner: VMFR Country: RU
LEOCIRCULARPOLAR

关于 Kosmos-2463

正在加载描述...

实时位置

正在加载3D地球...

即将过境

高度历史

Altitude vs Time

uPlot chart will show altitude changes over time

两行轨道根数

1 36519U 10017A 26063.15837549 .00000076 00000-0 67110-4 0 9994
2 36519 82.9639 326.8942 0037385 62.4114 45.3409 13.71657328793536
Epoch: Mar 4, 2026 • Age: 16 hours

当前状态

高度 1015.3 km
速度 7.34 km/s
星下点 -9.41°S, 98.46°E
发射日期 Apr 27, 2010
运行时间 15.8 years
类型 other

技术详情

分类 Payload
质量 820.00 kg
干质量 820.00 kg
总质量 820.00 kg
长度 5.00 m
直径 2.00 m
跨度 17.00 m
形状 Cyl + Ant
制造商 POLK
平台类型 KAUR-1 11F627
阶段状态 In Orbit
所有者/国家 VMFR/RU

大型星座

Loading constellations...